User: anonymous   Login
Location: Caltech
(34.1382°N, 118.1253°W)
Time: 09:24:09
(UTC-08:00)
Language:

ERBS - Orbit

View from above orbital plane
View from above orbital plane
View from above satellite
View from above satellite

Ground track
Ground track

The orbit data is extracted from the following two-line orbital elements,

1 15354U 84108B   18017.25496116 +.00002073 +00000-0 +51505-4 0  9992
2 15354 057.0083 295.7089 0014203 133.1476 227.0769 15.45168857831003
Epoch (UTC): 17 January 2018 06:07:08
Eccentricity: 0.0014203
inclination: 57.0083°
perigee height: 421 km
apogee height: 440 km
right ascension of ascending node: 295.7089°
argument of perigee: 133.1476°
revolutions per day: 15.45168857
mean anomaly at epoch: 227.0769°
orbit number at epoch: 83100

The dashed part of the orbit path shows where the satellite is in the earth's shadow,  

DLR